Location: La Coruña
(43.3623°N, 8.4115°W)
Time: 03:20:42
(UTC+01:00)

STARLINK-1116 - Pass Details

Date: 21 January 2020
Orbit: 348 x 351 km, 53.0° (Epoch: 23 February)

Event Time Altitude Azimuth Distance (km) Brightness Sun altitude
Rises 19:48:38 0° 278° (W) 2,177 8.0 -14.2°
Reaches altitude 10° 19:51:06 10° 300° (WNW) 1,334 6.3 -14.6°
Maximum altitude 19:53:12 17° 345° (NNW) 995 5.0 -15.0°
Enters shadow 19:54:13 15° 10° (N) 1,087 4.9 -15.2°
